COSMOS 1261 DEB, 27796

Orbit data source: Space-Track

COSMOS 1261 DEB, 27796 is space debris in HEO originally from a launch on Tue, 31 Mar 1981 UTC launched from the Plesetsk Missile And Space Complex (PKMTR). Debris objects in space refer to the collection of defunct objects orbiting the Earth. Examples of debris include non-operational satellites, rocket bodies, and fragments generated from explosions, collisions, or faulty payload assembly.

Loading next visibility...
Identifier
27796, 1981-031H
Orbit
HEO
Country
Flag of CISCIS
Related business
Manufacturer
Unknown
Mission
Spacecraft
Bus & Motor
Unknown
Mass
Unknown
Launch date (UTC)
1981-03-31 (44 years ago)
Launch vehicle
Unknown
Launch site
Plesetsk Missile And Space Complex (PKMTR)
Object type
Payload
Rocket body
Debris
Shape & HBR
Unknown
Radar Cross Section
Medium (>0.1 m² and <1 m²)

Expand to show TLE details & history
Last TLE update: 18 hours ago

TLE from 18 hours ago
0 COSMOS 1261 DEB
1 27796U 81031H   25258.33531618 -.00000948  00000-0  00000-0 0  9998
2 27796  65.5590  24.2969 6933727  20.7239 357.0780  2.01778467180321
Epoch: 2025-09-15T08:02Z
TLE epoch observation values (Epoch: 2025-09-15T08:02:51.317Z)
Latitude
-0.00033°
Longitude
-90.96871°
Altitude
1,954.463 km
Speed
8.979 km/s
True Right ascension
01h 37m 08s
True Declination
0° 00' 01"
Sunlit
Object was in full shadow at epoch
Visualization orbit readout
Latitude
Unknown
Longitude
Unknown
Altitude
Unknown
Speed
Unknown
Apparent Right ascension
Unknown
Apparent Declination
Unknown
Sunlit
N/A
Visualization observer readout
Local Sidereal Time
19:05:11
Azimuth
Unknown
Elevation
Unknown
Doppler factor
Unknown
Orbital elements
Apogee altitude
38,415.915 km
Perigee altitude
1,732.942 km
Semi-major axis
26,452.565 km
Eccentricity
0.69337
Inclination
65.559°
RAAN
24.2969°
Arg. of periapsis
20.7239°
True anomaly
338.05382°
Mean anomaly
357.078°
Eccentric anomaly
350.56676°
Mean motion
0.50448 °/min
Orbital period
713.61 mins
BSTAR
0
Loading maneuver chart data...
Computing Atmospheric mass density...
Loading historical data...
Loading historical data...
Loading historical data...
Loading historical data...
Loading historical data...
Loading historical data...
Loading historical data...

Documentation

Showing up to 5 results
|